Location: Willingham
(52.3167°N, 0.0667°E)
Time: 22:18:37
(UTC+00:00)

Cosmos 773 Rocket - Pass Details

Date: 19 May 2025
Orbit: 742 x 772 km, 74.1° (Epoch: 18 June)

Event Time Altitude Azimuth Distance (km) Brightness Sun altitude
Exits shadow 21:51:30 11° 189° (S) 2,225 5.9 -12.8°
Maximum altitude 21:56:27 62° 110° (ESE) 838 4.0 -13.1°
Drops below altitude 10° 22:01:30 10° 31° (NNE) 2,267 6.9 -13.5°
Sets 22:03:53 0° 28° (NNE) 3,194 7.7 -13.7°
